AXM23 WMKK-VOTR

Flight info

Callsign AXM23
Flight time N/A
Altitude 36000
Route PUGER1A PUGER R461 ISVUR N563 ADKIT T3 TTR
Aircraft A20N/M-SDE2E3FGHIRWXY/LB1

Departure

Time 2026-05-07 07:36
Airport Kuala Lumpur International Airport (WMKK)

Arrival

Time N/A
Airport Tiruchirappalli International Airport (VOTR)
Time Latitude Longitude Altitude Speed Heading
2026-05-07 07:23 2.73995 101.68417 69 ft 1 kts 326°
2026-05-07 07:23 2.73989 101.68422 69 ft 4 kts 324°
2026-05-07 07:24 2.73969 101.68439 41 ft 4 kts 301°
2026-05-07 07:24 2.73962 101.68462 37 ft 4 kts 246°
2026-05-07 07:24 2.73965 101.68468 39 ft 0 kts 236°
2026-05-07 07:26 2.73964 101.68468 39 ft 0 kts 236°
2026-05-07 07:26 2.73962 101.68464 37 ft 1 kts 236°
2026-05-07 07:26 2.73942 101.68449 38 ft 6 kts 194°
2026-05-07 07:27 2.73890 101.68426 41 ft 10 kts 222°
2026-05-07 07:27 2.73841 101.68359 41 ft 14 kts 236°
2026-05-07 07:27 2.73779 101.68268 40 ft 18 kts 238°
2026-05-07 07:27 2.73712 101.68172 39 ft 8 kts 226°
2026-05-07 07:28 2.73687 101.68177 39 ft 0 kts 126°
2026-05-07 07:28 2.73686 101.68177 39 ft 0 kts 141°
2026-05-07 07:28 2.73670 101.68188 39 ft 5 kts 145°
2026-05-07 07:28 2.73628 101.68216 39 ft 9 kts 146°
2026-05-07 07:29 2.73561 101.68260 39 ft 13 kts 146°
2026-05-07 07:29 2.73471 101.68319 39 ft 18 kts 146°
2026-05-07 07:29 2.73358 101.68398 39 ft 22 kts 146°
2026-05-07 07:29 2.73217 101.68493 40 ft 27 kts 145°
2026-05-07 07:30 2.73053 101.68600 40 ft 29 kts 146°
2026-05-07 07:30 2.72889 101.68711 39 ft 28 kts 145°
2026-05-07 07:30 2.72729 101.68820 39 ft 28 kts 146°
2026-05-07 07:30 2.72571 101.68925 39 ft 27 kts 147°
2026-05-07 07:31 2.72421 101.69032 39 ft 26 kts 144°
2026-05-07 07:31 2.72269 101.69130 40 ft 26 kts 147°
2026-05-07 07:31 2.72123 101.69229 40 ft 25 kts 145°
2026-05-07 07:31 2.71978 101.69326 40 ft 25 kts 146°
2026-05-07 07:32 2.71867 101.69398 40 ft 13 kts 161°
2026-05-07 07:32 2.71796 101.69356 39 ft 13 kts 229°
2026-05-07 07:32 2.71715 101.69375 38 ft 13 kts 151°
2026-05-07 07:32 2.71637 101.69428 38 ft 14 kts 145°
2026-05-07 07:33 2.71552 101.69485 38 ft 15 kts 146°
2026-05-07 07:33 2.71461 101.69545 38 ft 16 kts 146°
2026-05-07 07:33 2.71366 101.69609 38 ft 17 kts 146°
2026-05-07 07:33 2.71268 101.69675 38 ft 17 kts 146°
2026-05-07 07:34 2.71168 101.69742 38 ft 17 kts 146°
2026-05-07 07:34 2.71067 101.69810 37 ft 18 kts 146°
2026-05-07 07:34 2.70959 101.69862 37 ft 17 kts 188°
2026-05-07 07:34 2.70889 101.69777 39 ft 16 kts 241°
2026-05-07 07:35 2.70881 101.69726 38 ft 0 kts 319°
2026-05-07 07:35 2.70882 101.69726 38 ft 1 kts 327°
2026-05-07 07:35 2.70956 101.69675 38 ft 37 kts 326°
2026-05-07 07:35 2.71346 101.69416 38 ft 97 kts 325°
2026-05-07 07:36 2.72046 101.68941 38 ft 144 kts 326°
2026-05-07 07:36 2.72981 101.68311 97 ft 173 kts 326°
2026-05-07 07:36 2.73963 101.67633 561 ft 176 kts 326°
2026-05-07 07:36 2.74976 101.66898 891 ft 181 kts 312°
2026-05-07 07:37 2.75551 101.65747 1132 ft 191 kts 281°
2026-05-07 07:37 2.75863 101.64449 1593 ft 194 kts 278°
2026-05-07 07:37 2.76188 101.63111 1896 ft 210 kts 281°
2026-05-07 07:37 2.76562 101.61584 2144 ft 235 kts 282°
2026-05-07 07:38 2.76957 101.59963 2811 ft 254 kts 282°
2026-05-07 07:38 2.77355 101.58149 3194 ft 277 kts 281°
2026-05-07 07:38 2.77775 101.56217 3734 ft 288 kts 286°
2026-05-07 07:38 2.78383 101.54329 4623 ft 287 kts 289°
2026-05-07 07:39 2.79057 101.52443 5324 ft 289 kts 290°
2026-05-07 07:39 2.79743 101.50558 6156 ft 286 kts 290°
2026-05-07 07:39 2.80416 101.48680 6835 ft 290 kts 290°
2026-05-07 07:39 2.81092 101.46761 7429 ft 297 kts 289°
2026-05-07 07:40 2.81780 101.44788 8035 ft 301 kts 289°
2026-05-07 07:40 2.82462 101.42828 8846 ft 298 kts 289°
2026-05-07 07:40 2.83147 101.40855 9484 ft 303 kts 289°
2026-05-07 07:40 2.83847 101.38838 9970 ft 312 kts 290°
2026-05-07 07:41 2.84790 101.36861 10333 ft 324 kts 304°
2026-05-07 07:41 2.86255 101.35083 10509 ft 340 kts 317°
2026-05-07 07:41 2.87987 101.33383 10752 ft 354 kts 316°
2026-05-07 07:41 2.89729 101.31661 11265 ft 359 kts 316°
2026-05-07 07:42 2.91507 101.29891 11837 ft 363 kts 316°
2026-05-07 07:42 2.93301 101.28099 12432 ft 366 kts 317°
2026-05-07 07:42 2.95108 101.26291 13008 ft 369 kts 317°
2026-05-07 07:42 2.96931 101.24466 13562 ft 373 kts 317°
2026-05-07 07:43 2.98771 101.22624 14069 ft 376 kts 317°
2026-05-07 07:43 3.00627 101.20767 14553 ft 379 kts 317°
2026-05-07 07:43 3.02499 101.18893 15030 ft 382 kts 317°
2026-05-07 07:43 3.04386 101.17004 15517 ft 385 kts 317°
2026-05-07 07:44 3.06286 101.15103 15998 ft 388 kts 317°
2026-05-07 07:44 3.08199 101.13187 16465 ft 391 kts 317°
2026-05-07 07:44 3.10127 101.11257 16923 ft 393 kts 317°
2026-05-07 07:44 3.12066 101.09316 17368 ft 396 kts 317°
2026-05-07 07:45 3.14021 101.07358 17805 ft 399 kts 317°
2026-05-07 07:45 3.15989 101.05387 18220 ft 401 kts 317°
2026-05-07 07:45 3.17966 101.03407 18595 ft 404 kts 317°
2026-05-07 07:45 3.19960 101.01412 18968 ft 406 kts 317°
2026-05-07 07:46 3.21878 100.99324 19323 ft 411 kts 309°
2026-05-07 07:46 3.23374 100.96874 19682 ft 415 kts 296°
2026-05-07 07:46 3.24073 100.95088 19924 ft 418 kts 288°
2026-05-07 07:46 3.24781 100.92254 20281 ft 421 kts 284°
2026-05-07 07:47 3.25693 100.88430 20758 ft 424 kts 284°
2026-05-07 07:47 3.26149 100.86531 21003 ft 425 kts 284°
2026-05-07 07:47 3.27080 100.82670 21477 ft 428 kts 284°
2026-05-07 07:47 3.27543 100.80752 21711 ft 429 kts 284°
2026-05-07 07:48 3.28246 100.77839 22048 ft 431 kts 284°
2026-05-07 07:48 3.28952 100.74916 22399 ft 433 kts 284°
2026-05-07 07:48 3.29662 100.71973 22733 ft 436 kts 284°
2026-05-07 07:48 3.30375 100.69018 23072 ft 438 kts 284°
2026-05-07 07:49 3.31090 100.66053 23401 ft 440 kts 284°
2026-05-07 07:49 3.31809 100.63072 23670 ft 441 kts 284°
2026-05-07 07:49 3.32530 100.60082 23952 ft 443 kts 284°
2026-05-07 07:49 3.33255 100.57078 24225 ft 445 kts 284°
2026-05-07 07:50 3.33981 100.54067 24496 ft 446 kts 284°
2026-05-07 07:50 3.34700 100.51084 24760 ft 448 kts 284°
2026-05-07 07:50 3.35440 100.48010 25024 ft 449 kts 284°
2026-05-07 07:50 3.36164 100.45008 25278 ft 451 kts 284°
2026-05-07 07:51 3.36900 100.41953 25540 ft 452 kts 284°
2026-05-07 07:51 3.37639 100.38884 25789 ft 454 kts 284°
2026-05-07 07:51 3.38380 100.35807 26009 ft 456 kts 284°
2026-05-07 07:51 3.39125 100.32715 26257 ft 458 kts 284°
2026-05-07 07:52 3.39813 100.29601 26490 ft 459 kts 279°
2026-05-07 07:52 3.40161 100.26419 26718 ft 461 kts 274°
2026-05-07 07:52 3.40349 100.23208 26934 ft 463 kts 274°
2026-05-07 07:52 3.40548 100.19989 27162 ft 464 kts 274°
2026-05-07 07:53 3.40752 100.16763 27471 ft 464 kts 274°
2026-05-07 07:53 3.40956 100.13538 27671 ft 465 kts 274°
2026-05-07 07:53 3.41160 100.10300 27880 ft 467 kts 274°
2026-05-07 07:53 3.41365 100.07054 28094 ft 468 kts 274°
2026-05-07 07:54 3.41570 100.03795 28301 ft 470 kts 274°
2026-05-07 07:54 3.41775 100.00527 28516 ft 471 kts 274°
2026-05-07 07:54 3.41981 99.97249 28697 ft 473 kts 274°
2026-05-07 07:54 3.42186 99.93968 28895 ft 474 kts 274°
2026-05-07 07:55 3.42393 99.90669 29094 ft 475 kts 274°
2026-05-07 07:55 3.42600 99.87365 29273 ft 476 kts 274°
2026-05-07 07:55 3.42807 99.84055 29453 ft 478 kts 274°
2026-05-07 07:55 3.43016 99.80725 29627 ft 479 kts 274°
2026-05-07 07:56 3.43224 99.77394 29808 ft 481 kts 274°
2026-05-07 07:56 3.43433 99.74050 29974 ft 482 kts 274°
2026-05-07 07:56 3.43642 99.70700 30126 ft 483 kts 274°
2026-05-07 07:56 3.43853 99.67336 30289 ft 484 kts 274°
2026-05-07 07:57 3.44063 99.63973 30454 ft 485 kts 274°
2026-05-07 07:57 3.44273 99.60596 30617 ft 487 kts 274°
2026-05-07 07:57 3.44484 99.57213 30776 ft 488 kts 274°
2026-05-07 07:57 3.44695 99.53825 30980 ft 488 kts 274°
2026-05-07 07:58 3.44907 99.50434 31192 ft 487 kts 274°
2026-05-07 07:58 3.45117 99.47053 31406 ft 487 kts 274°
2026-05-07 07:58 3.45327 99.43673 31696 ft 484 kts 274°
2026-05-07 07:58 3.45536 99.40311 31917 ft 483 kts 274°
2026-05-07 07:59 3.45745 99.36960 32188 ft 481 kts 274°
2026-05-07 07:59 3.45951 99.33630 32467 ft 478 kts 274°
2026-05-07 07:59 3.46158 99.30307 32670 ft 477 kts 274°
2026-05-07 07:59 3.46364 99.26989 32784 ft 479 kts 273°
2026-05-07 08:00 3.46567 99.23713 33003 ft 477 kts 273°
2026-05-07 08:00 3.46772 99.20400 33215 ft 475 kts 273°
2026-05-07 08:00 3.46976 99.17103 33396 ft 475 kts 273°
2026-05-07 08:00 3.47181 99.13806 33558 ft 475 kts 273°
2026-05-07 08:01 3.47385 99.10510 33709 ft 474 kts 273°
2026-05-07 08:01 3.47589 99.07220 33836 ft 475 kts 273°
2026-05-07 08:01 3.47795 99.03907 33816 ft 478 kts 272°
2026-05-07 08:02 3.48207 98.97240 33961 ft 480 kts 272°
2026-05-07 08:02 3.48412 98.93905 34099 ft 480 kts 272°
2026-05-07 08:02 3.48617 98.90579 34230 ft 479 kts 272°
2026-05-07 08:02 3.48822 98.87252 34351 ft 479 kts 273°
2026-05-07 08:03 3.49027 98.83927 34450 ft 479 kts 273°
2026-05-07 08:03 3.49231 98.80604 34586 ft 478 kts 273°
2026-05-07 08:03 3.49435 98.77290 34724 ft 477 kts 273°
2026-05-07 08:03 3.49638 98.73977 34828 ft 477 kts 273°
2026-05-07 08:04 3.49842 98.70661 34953 ft 476 kts 272°
2026-05-07 08:04 3.50045 98.67373 35203 ft 472 kts 272°
2026-05-07 08:04 3.50323 98.64101 35327 ft 472 kts 277°
2026-05-07 08:05 3.51921 98.57730 35492 ft 473 kts 290°
2026-05-07 08:05 3.54604 98.51699 35648 ft 475 kts 294°
2026-05-07 08:05 3.55974 98.48702 35756 ft 474 kts 294°
2026-05-07 08:06 3.57341 98.45703 35785 ft 473 kts 294°
2026-05-07 08:06 3.60073 98.39712 35787 ft 473 kts 294°
2026-05-07 08:07 3.62792 98.33755 35811 ft 476 kts 294°
2026-05-07 08:07 3.65555 98.27701 35803 ft 480 kts 294°
2026-05-07 08:08 3.68344 98.21590 35801 ft 485 kts 294°
2026-05-07 08:08 3.71149 98.15443 35825 ft 484 kts 294°
2026-05-07 08:09 3.73952 98.09299 35827 ft 485 kts 294°
2026-05-07 08:09 3.76752 98.03157 35861 ft 485 kts 294°
2026-05-07 08:10 3.79550 97.97021 35841 ft 484 kts 294°
2026-05-07 08:10 3.82343 97.90892 35833 ft 484 kts 294°
2026-05-07 08:11 3.85132 97.84771 35877 ft 483 kts 294°
2026-05-07 08:11 3.87918 97.78655 35881 ft 482 kts 294°
2026-05-07 08:12 3.90701 97.72545 35885 ft 482 kts 294°
2026-05-07 08:12 3.93483 97.66436 35891 ft 482 kts 294°
2026-05-07 08:13 3.96245 97.60369 35881 ft 482 kts 294°
2026-05-07 08:13 3.99043 97.54220 35905 ft 483 kts 295°
2026-05-07 08:14 4.01832 97.48090 35909 ft 484 kts 295°
2026-05-07 08:14 4.04600 97.42005 35904 ft 484 kts 295°
2026-05-07 08:15 4.07410 97.35829 35915 ft 484 kts 295°
2026-05-07 08:15 4.10203 97.29689 35898 ft 485 kts 295°
2026-05-07 08:16 4.12979 97.23581 35911 ft 485 kts 295°
2026-05-07 08:16 4.15774 97.17433 35924 ft 485 kts 295°
2026-05-07 08:17 4.18573 97.11275 35915 ft 486 kts 295°
2026-05-07 08:17 4.21372 97.05113 35921 ft 486 kts 295°
2026-05-07 08:18 4.24169 96.98955 35906 ft 486 kts 295°
2026-05-07 08:18 4.26965 96.92800 35904 ft 486 kts 295°
2026-05-07 08:19 4.29760 96.86644 35923 ft 485 kts 295°
2026-05-07 08:19 4.32550 96.80495 35906 ft 485 kts 295°
2026-05-07 08:20 4.35344 96.74339 35903 ft 485 kts 295°
2026-05-07 08:20 4.38137 96.68183 35894 ft 485 kts 295°
2026-05-07 08:21 4.40926 96.62044 35899 ft 489 kts 295°
2026-05-07 08:21 4.43710 96.55902 35901 ft 484 kts 295°
2026-05-07 08:22 4.46499 96.49739 35885 ft 485 kts 295°
2026-05-07 08:22 4.49291 96.43577 35886 ft 487 kts 295°
2026-05-07 08:23 4.52096 96.37384 35858 ft 488 kts 295°
2026-05-07 08:23 4.54899 96.31195 35873 ft 487 kts 295°
2026-05-07 08:24 4.57698 96.25016 35889 ft 486 kts 295°
2026-05-07 08:24 4.60492 96.18844 35877 ft 486 kts 295°
2026-05-07 08:25 4.63283 96.12676 35868 ft 485 kts 295°
2026-05-07 08:25 4.66071 96.06514 35853 ft 485 kts 295°
2026-05-07 08:26 4.70257 95.97260 35874 ft 486 kts 295°
2026-05-07 08:26 4.73044 95.91095 35851 ft 485 kts 295°
2026-05-07 08:27 4.75810 95.84976 35853 ft 485 kts 295°
2026-05-07 08:27 4.78593 95.78818 35850 ft 485 kts 295°
2026-05-07 08:28 4.81375 95.72661 35833 ft 485 kts 295°
2026-05-07 08:28 4.84160 95.66495 35823 ft 485 kts 295°
2026-05-07 08:29 4.86943 95.60330 35819 ft 485 kts 295°
2026-05-07 08:29 4.89726 95.54166 35821 ft 486 kts 295°
2026-05-07 08:30 4.92512 95.47993 35814 ft 486 kts 295°
2026-05-07 08:30 4.95301 95.41811 35826 ft 486 kts 295°
2026-05-07 08:31 4.98086 95.35637 35832 ft 486 kts 295°
2026-05-07 08:31 5.00869 95.29467 35816 ft 486 kts 294°
2026-05-07 08:32 5.03660 95.23275 35818 ft 486 kts 294°
2026-05-07 08:32 5.05974 95.18142 35816 ft 486 kts 294°
2026-05-07 08:33 5.09231 95.10912 35819 ft 486 kts 294°
2026-05-07 08:33 5.12015 95.04729 35816 ft 486 kts 294°
2026-05-07 08:34 5.14328 94.99593 35813 ft 486 kts 294°
2026-05-07 08:34 5.17110 94.93410 35799 ft 486 kts 294°
2026-05-07 08:35 5.19894 94.87223 35804 ft 487 kts 294°
2026-05-07 08:35 5.22679 94.81032 35801 ft 487 kts 294°
2026-05-07 08:36 5.25445 94.74882 35806 ft 487 kts 294°
2026-05-07 08:36 5.28230 94.68686 35807 ft 487 kts 294°
2026-05-07 08:37 5.31016 94.62487 35805 ft 487 kts 294°
2026-05-07 08:37 5.33804 94.56283 35805 ft 488 kts 294°
2026-05-07 08:38 5.36594 94.50075 35797 ft 488 kts 294°
2026-05-07 08:38 5.39385 94.43858 35802 ft 489 kts 294°
2026-05-07 08:39 5.42178 94.37637 35807 ft 489 kts 294°
2026-05-07 08:39 5.44975 94.31403 35812 ft 490 kts 294°
2026-05-07 08:40 5.47773 94.25166 35812 ft 490 kts 294°
2026-05-07 08:40 5.50569 94.18929 35809 ft 490 kts 294°
2026-05-07 08:41 5.53361 94.12700 35818 ft 489 kts 294°
2026-05-07 08:41 5.56132 94.06517 35820 ft 489 kts 294°
2026-05-07 08:42 5.58921 94.00292 35810 ft 488 kts 294°
2026-05-07 08:42 5.61706 93.94073 35812 ft 488 kts 294°
2026-05-07 08:43 5.64492 93.87850 35804 ft 488 kts 294°
2026-05-07 08:43 5.67273 93.81635 35800 ft 488 kts 294°